This is the latest recevied weather packets stored in our database for station/object PA1CD-13. If no packets are shown the sender has not sent any weather packets the latest 1 day(s).
| Time | Temp. | Humidity | Pressure | Rain* | Wind** | Luminosity | Snow |
|---|---|---|---|---|---|---|---|
| 1777980181 | 13.33° C | 63% | 1010.8 hPa | 0 mm | 0 m/s | 396 W/m² | - |
| 1777980061 | 13.33° C | 62% | 1010.8 hPa | 0 mm | 0.89 m/s, 0° | 343 W/m² | - |
| 1777979941 | 13.33° C | 63% | 1010.8 hPa | 0 mm | 0.45 m/s, 42° | 909 W/m² | - |
| 1777979820 | 13.33° C | 63% | 1010.9 hPa | 0 mm | 0.45 m/s, 69° | 909 W/m² | - |
| 1777979702 | 13.33° C | 63% | 1010.8 hPa | 0 mm | 4.02 m/s, 0° | 373 W/m² | - |
| 1777979583 | 13.33° C | 62% | 1010.9 hPa | 0 mm | 2.24 m/s, 0° | 969 W/m² | - |
| 1777979464 | 13.33° C | 62% | 1010.9 hPa | 0 mm | 0.45 m/s, 45° | 397 W/m² | - |
| 1777979344 | 13.33° C | 62% | 1011 hPa | 0 mm | 0 m/s | 387 W/m² | - |
| 1777979224 | 13.33° C | 62% | 1011 hPa | 0 mm | 0.89 m/s, 69° | 387 W/m² | - |
| 1777979106 | 13.33° C | 63% | 1011 hPa | 0 mm | 0 m/s | 986 W/m² | - |
| 1777978984 | 13.33° C | 63% | 1011 hPa | 0 mm | 0.89 m/s, 59° | 992 W/m² | - |
| 1777978864 | 13.33° C | 62% | 1011.1 hPa | 0 mm | 1.79 m/s, 79° | 257 W/m² | - |
| 1777978745 | 13.33° C | 62% | 1011.1 hPa | 0 mm | 0.89 m/s, 0° | 257 W/m² | - |
| 1777978623 | 13.33° C | 63% | 1011.1 hPa | 0 mm | 0 m/s | 1006 W/m² | - |
| 1777978506 | 13.33° C | 63% | 1011.2 hPa | 0 mm | 0 m/s | 953 W/m² | - |
| 1777978384 | 13.33° C | 63% | 1011.1 hPa | 0 mm | 0 m/s | 1009 W/m² | - |
| 1777978264 | 13.33° C | 63% | 1011.1 hPa | 0 mm | 0.45 m/s, 56° | 1009 W/m² | - |
| 1777978143 | 13.33° C | 62% | 1011.1 hPa | 0 mm | 2.68 m/s, 59° | 1009 W/m² | - |
| 1777978024 | 13.33° C | 63% | 1011 hPa | 0 mm | 2.24 m/s, 69° | 862 W/m² | - |
| 1777977905 | 13.33° C | 63% | 1011.1 hPa | 0 mm | 1.34 m/s, 72° | 350 W/m² | - |
| 1777977784 | 13.33° C | 62% | 1011 hPa | 0 mm | 0.89 m/s, 0° | 1027 W/m² | - |
| 1777977664 | 13.33° C | 62% | 1011.1 hPa | 0 mm | 0.45 m/s, 0° | 1027 W/m² | - |
| 1777977544 | 13.33° C | 62% | 1011.1 hPa | 0 mm | 0.89 m/s, 0° | 995 W/m² | - |
| 1777977424 | 13.33° C | 63% | 1011 hPa | 0 mm | 1.34 m/s, 0° | 937 W/m² | - |
| 1777977305 | 13.33° C | 62% | 1011 hPa | 0 mm | 0.89 m/s, 107° | 269 W/m² | - |
* Rain latest hour (hover to see other rain measurements)
** Current wind speed in m/s (hover to see current wind gust speed)